Theta_e
308 309 309 308 307 308 309 309 309 309 309 310 309 310 309 308 308 307 308 308 308 308 308 310 312 313 316 319 331 342 345 346 344 342 341 343 342 342 341 338 333 331 336 337
308 308 308 308 308 309 309 309 309 309 310 308 309 311 308 308 308 308 308 308 308 308 308 308 310 311 317 319 322 334 342 344 345 344 342 343 343 343 342 341 339 336 335 336
308 310 310 309 310 311 310 310 310 310 313 311 310 312 312 310 308 308 308 307 308 308 308 308 309 315 319 320 321 328 336 342 344 344 344 345 346 345 344 344 343 342 340 339
308 308 310 310 310 309 310 309 311 316 315 316 312 317 313 312 310 309 308 308 307 307 307 307 308 312 320 322 322 326 332 340 344 344 344 345 346 345 345 345 346 345 344 343
310 310 310 310 310 310 311 312 315 317 315 312 313 309 314 311 312 309 311 308 308 307 307 308 308 311 315 321 323 325 330 337 342 345 344 345 345 345 344 343 342 342 344 344
310 310 309 310 311 311 315 316 315 312 311 314 313 311 314 312 311 310 310 309 308 309 307 307 309 311 313 317 323 324 328 331 331 338 343 344 344 344 343 343 342 341 341 342
311 311 310 311 314 315 312 312 314 314 314 317 313 314 313 311 312 311 313 313 310 307 307 307 307 307 310 317 321 324 325 325 325 326 327 329 330 332 336 336 336 337 339 341
311 313 313 317 314 314 313 313 314 316 316 315 314 316 313 310 311 313 312 312 310 309 307 307 308 307 309 315 319 322 324 323 322 321 320 319 319 319 321 323 326 330 332 332
313 314 314 317 315 313 316 316 313 314 312 312 313 313 312 311 313 313 313 313 312 311 309 308 309 309 310 316 318 321 320 320 321 321 321 320 319 319 320 323 324 325 325 325
311 313 312 316 314 314 315 314 316 311 313 314 313 312 312 311 313 314 313 313 312 311 310 308 308 310 311 315 318 319 319 321 321 321 317 319 319 319 320 323 324 325 326 326
311 311 312 313 313 313 315 316 313 310 311 312 315 312 309 313 315 312 312 312 312 312 312 310 310 312 310 313 315 317 319 318 319 318 318 319 319 320 321 322 324 325 326 327
312 314 313 313 310 311 310 312 312 311 312 316 315 314 310 309 311 311 312 313 312 313 311 309 311 313 314 313 311 314 315 315 316 317 318 320 320 321 321 322 322 325 328 330
313 312 313 312 309 310 314 314 311 309 307 311 315 312 309 309 309 311 311 312 312 314 313 310 311 312 314 314 313 313 312 314 315 315 317 320 321 321 322 321 323 324 328 326
315 311 312 313 312 308 309 311 313 311 305 312 313 312 311 310 311 312 311 310 312 313 314 314 311 312 313 314 315 314 314 314 313 315 315 317 320 321 321 320 322 322 323 323
308 309 309 309 309 308 308 309 309 311 311 312 311 311 310 311 312 311 311 310 311 311 313 313 313 312 313 314 314 316 314 314 313 312 315 316 318 319 318 317 318 319 321 320
304 307 309 309 309 309 310 310 310 310 310 309 310 311 310 313 311 311 310 310 310 309 311 312 311 310 310 311 312 313 315 314 314 313 311 313 316 317 317 317 317 320 321 316
304 305 306 308 309 310 310 310 309 312 313 312 315 314 315 313 313 311 309 308 306 307 309 310 309 308 308 307 309 309 311 313 312 312 313 313 312 313 316 316 316 316 316 315
304 304 303 307 308 313 307 315 315 314 315 315 315 315 313 312 309 307 307 306 306 307 309 307 306 305 306 306 306 307 307 308 308 309 309 310 311 312 314 315 316 316 314 314
303 304 302 305 305 309 310 315 315 314 312 312 312 312 311 309 306 306 305 305 306 305 304 304 304 304 304 305 305 305 305 306 306 307 308 308 309 310 311 312 313 313 313 313
306 304 303 303 307 310 309 313 311 311 314 310 309 309 309 306 308 307 303 303 304 303 304 304 304 304 304 304 305 304 305 305 305 305 306 307 307 308 309 310 310 311 312 312
313 314 310 310 312 310 309 310 309 313 308 308 306 305 306 307 305 305 305 305 304 304 304 304 303 303 304 304 304 304 304 303 304 304 305 305 305 306 307 308 309 310 310 310
311 312 312 314 314 311 308 309 309 306 305 306 305 305 306 306 305 306 306 306 305 304 304 303 302 302 304 303 302 302 302 302 302 303 304 304 304 304 305 307 308 309 309 309
313 312 309 310 305 304 307 306 305 304 304 305 306 306 305 305 306 305 304 305 305 305 304 303 302 302 301 301 300 300 300 301 302 302 303 304 304 304 304 305 306 307 307 308
310 307 312 310 307 305 304 304 304 305 305 305 305 305 305 305 305 303 304 304 302 302 303 303 302 301 301 301 300 300 301 301 302 303 303 304 304 304 305 305 306 307 307 307
307 307 307 307 304 305 306 305 304 304 304 305 304 304 303 303 303 303 302 302 300 300 299 298 298 300 301 301 300 300 301 301 301 302 302 302 303 304 304 305 306 306 307 307
307 309 309 309 306 305 303 303 303 304 305 304 303 303 302 303 303 301 300 300 298 299 296 297 298 297 300 299 299 299 301 300 301 301 302 303 305 307 307 306 306 306 306 307
Wind_Speed
2 3 6 9 7 5 3 4 5 7 12 4 11 11 11 10 7 10 11 10 9 10 12 21 31 25 26 35 37 37 37 40 36 36 32 28 35 34 35 33 32 31 29 30
4 6 10 6 4 5 5 4 6 7 8 5 9 16 9 6 6 9 9 10 12 9 9 12 21 20 23 32 40 40 40 37 40 36 35 27 29 31 34 33 33 33 29 27
7 8 6 6 4 4 5 4 5 8 4 5 8 14 4 3 6 8 9 9 9 11 11 10 10 14 17 26 38 46 42 41 39 37 33 22 19 15 22 26 31 38 36 33
6 5 7 2 7 6 6 7 7 4 1 4 3 17 10 7 9 5 11 10 11 11 10 8 9 12 16 26 28 34 42 43 44 41 33 32 27 19 24 31 30 28 31 33
9 4 3 5 9 7 9 5 7 3 4 2 5 8 5 6 11 12 14 10 13 12 11 11 10 16 28 20 26 33 37 35 36 36 37 36 27 24 18 18 18 20 25 27
6 1 6 8 2 5 2 2 3 4 2 4 8 8 0 2 7 6 11 14 13 16 10 11 16 23 25 22 20 27 32 33 32 34 33 33 29 24 21 19 18 20 22 24
5 10 5 4 3 2 4 5 3 4 3 12 4 5 10 10 14 7 11 18 17 11 12 10 12 10 18 20 25 27 31 32 30 28 27 25 21 19 17 16 16 18 22 24
4 9 6 4 6 7 4 7 4 6 8 15 3 6 6 7 6 5 8 7 11 10 10 11 14 12 17 22 27 32 34 31 26 24 22 19 18 16 14 12 13 13 14 14
3 4 2 2 2 5 4 4 1 1 2 3 5 7 7 11 7 6 9 9 12 11 12 11 9 8 13 17 25 35 35 34 31 26 21 18 16 13 12 11 10 11 12 11
3 3 1 1 4 4 3 5 3 2 3 5 4 6 10 9 8 9 11 12 15 11 9 9 8 5 5 3 14 19 25 32 29 26 22 20 16 11 8 8 9 10 10 11
3 4 4 2 4 7 1 1 3 2 4 3 6 5 5 8 5 7 12 12 15 15 11 7 7 9 14 7 7 10 21 23 22 22 22 20 18 15 12 12 10 10 10 10
0 4 5 10 1 3 3 7 6 4 4 4 4 14 9 7 3 6 9 13 14 16 14 8 7 7 13 15 10 1 9 13 21 17 21 21 23 20 19 17 14 14 13 13
3 2 2 5 2 3 4 5 5 3 3 7 6 9 4 7 10 8 8 12 12 14 16 13 7 5 3 10 17 14 6 17 19 14 23 27 24 24 25 22 20 18 19 19
3 4 9 10 8 4 4 6 6 6 3 6 14 21 20 17 8 8 8 8 11 13 9 13 10 8 8 9 13 16 7 8 15 24 23 24 27 27 26 25 24 23 24 24
6 6 4 5 5 4 5 9 9 9 14 8 24 16 21 6 6 6 7 7 9 11 13 8 6 7 7 13 15 12 5 2 5 16 25 28 32 28 25 25 26 26 27 26
1 3 0 4 6 8 12 15 14 15 11 15 17 21 10 3 5 5 6 9 14 13 11 9 9 8 8 12 10 14 14 13 9 5 11 20 26 26 26 27 29 28 30 26
4 4 1 6 3 5 8 12 13 4 6 6 7 5 2 4 6 5 8 13 17 15 12 7 8 10 12 17 20 19 19 14 15 14 12 10 6 15 20 21 23 25 25 22
6 5 3 3 3 4 4 0 3 4 7 6 7 5 4 4 5 8 10 14 15 13 11 7 8 13 22 22 23 24 23 22 20 20 15 16 11 10 11 15 19 20 20 21
6 5 1 2 3 6 4 2 2 2 6 8 9 5 8 8 9 15 11 10 9 7 11 12 20 20 22 25 22 21 22 20 17 14 15 18 16 15 15 16 17 20 21 22
7 3 4 2 3 4 2 2 2 1 10 4 2 8 13 6 11 17 7 9 15 16 20 20 25 27 26 25 26 25 20 18 20 18 17 18 18 19 21 22 21 25 27 28
2 2 6 4 3 6 2 2 3 1 5 5 4 8 10 13 15 20 22 20 19 20 21 23 25 26 30 28 24 22 24 26 24 25 24 23 22 22 24 27 29 28 30 32
4 3 2 1 2 6 1 4 1 4 11 15 10 14 19 23 25 21 24 22 23 22 23 28 24 24 27 23 21 25 27 28 30 27 26 27 25 24 22 25 28 33 31 31
1 2 2 5 5 2 2 6 7 8 12 11 17 20 22 24 23 23 25 23 20 22 20 26 25 26 32 32 27 28 32 29 28 30 30 27 25 24 25 26 26 23 26 24
0 1 2 3 2 3 10 7 5 13 15 19 20 21 21 25 25 25 22 19 17 23 19 27 25 17 23 28 28 33 29 27 28 28 25 24 24 24 24 25 25 25 24 20
3 2 1 5 6 11 4 10 16 21 21 20 20 21 25 26 27 23 24 19 16 20 24 15 17 18 23 26 26 28 30 28 27 29 27 27 27 26 26 28 27 26 27 26
1 2 1 3 8 6 17 20 21 20 19 21 25 27 27 25 23 25 24 16 18 16 17 19 17 23 25 24 26 28 26 26 27 25 24 24 23 18 16 20 21 28 31 31
Wind_Direction
24 92 217 220 199 198 219 204 228 258 267 245 264 273 276 263 289 284 291 293 278 271 268 277 286 273 249 237 227 217 212 210 206 199 200 207 216 220 223 223 222 225 231 233
24 247 230 202 187 203 212 247 264 272 261 172 274 282 246 227 240 240 251 278 288 297 291 295 295 291 243 229 225 224 218 212 210 201 202 205 208 217 221 217 215 218 228 237
172 231 109 175 215 205 230 192 240 227 310 297 290 289 276 229 223 253 261 246 261 254 280 291 292 288 269 242 221 219 219 217 211 206 201 198 199 206 208 219 218 221 229 235
226 240 228 211 249 150 280 205 230 227 107 264 358 290 301 258 267 251 260 264 257 265 270 265 272 285 259 252 241 222 214 214 213 209 198 199 197 190 205 209 213 222 229 236
235 174 159 206 232 148 232 181 193 216 222 26 275 279 282 343 293 269 280 271 268 263 258 257 261 269 281 256 236 229 218 208 206 205 205 204 203 206 209 207 210 223 229 229
239 175 176 211 251 186 93 106 52 48 120 217 238 235 64 267 245 292 309 294 278 282 272 261 263 266 268 269 232 221 211 200 194 194 197 202 206 206 207 209 206 210 220 227
301 258 233 179 210 35 88 75 310 312 265 269 238 277 259 276 287 306 318 306 296 280 285 269 273 264 259 234 227 210 205 195 190 187 186 186 186 189 199 206 217 224 221 221
196 284 177 181 180 185 173 161 178 246 271 284 165 252 260 263 264 295 286 307 316 319 301 280 269 263 249 231 210 197 198 199 191 187 183 181 179 182 192 204 212 221 226 227
185 269 338 65 127 132 181 184 135 347 245 319 223 296 311 272 276 288 322 339 326 319 321 300 296 281 262 229 206 194 191 192 184 182 178 179 178 177 185 192 201 214 223 227
227 281 272 128 119 58 144 142 65 13 298 267 257 272 264 282 291 315 315 327 318 312 323 319 322 324 65 193 203 191 181 185 185 182 180 179 179 174 179 193 201 205 204 200
155 146 279 22 204 187 88 131 70 136 168 225 306 256 226 255 290 313 320 325 324 320 295 298 291 39 38 80 139 168 187 184 194 192 188 184 180 179 181 198 205 199 199 194
127 157 222 219 318 302 154 192 158 156 235 224 229 274 246 287 340 340 324 327 327 324 309 292 283 49 51 32 36 223 241 229 211 218 204 200 194 183 194 206 211 209 203 182
182 251 292 322 24 348 202 197 181 125 96 215 244 263 284 319 318 344 322 315 332 327 337 322 321 3 121 85 41 34 330 266 265 257 236 218 206 200 202 208 212 204 196 191
175 198 225 248 252 165 194 213 199 163 160 244 237 276 279 286 294 307 302 308 321 335 346 353 334 342 344 24 71 332 358 328 279 247 243 236 229 215 208 211 208 204 203 193
170 220 207 257 256 216 235 240 225 206 240 224 275 264 280 265 246 274 293 302 323 337 330 341 340 357 352 348 343 249 274 12 348 280 245 231 234 228 226 224 214 214 207 202
202 245 240 261 267 256 255 253 239 240 251 256 261 271 278 239 263 275 298 324 318 315 308 319 336 350 345 339 342 344 338 334 349 348 276 250 236 226 231 233 228 208 203 205
176 160 71 277 262 312 279 251 238 202 231 228 235 252 198 276 310 317 313 314 304 300 296 295 319 322 326 328 331 334 329 318 317 308 312 330 290 241 220 216 209 206 209 210
164 144 147 264 10 237 257 340 131 226 251 243 271 264 279 303 274 281 283 282 285 292 292 293 301 306 308 308 311 313 312 309 309 310 324 309 299 275 242 217 213 208 213 218
176 128 195 180 206 298 289 117 92 19 280 239 254 282 287 299 314 279 263 247 259 270 283 287 292 291 288 290 293 296 299 296 293 296 294 294 297 286 276 257 235 231 234 237
97 96 143 139 182 242 254 183 13 79 276 99 26 279 287 307 291 290 284 274 275 276 275 276 274 278 279 275 283 288 284 282 284 285 275 277 276 278 276 275 272 262 250 245
128 162 224 232 251 282 259 330 336 226 286 256 253 268 289 282 273 287 292 283 275 274 273 270 277 275 270 260 253 254 266 270 275 270 268 264 261 261 262 265 266 267 264 257
191 159 236 260 256 276 19 353 182 261 297 305 288 299 299 288 289 287 287 277 277 270 265 269 270 273 274 257 263 264 260 265 268 263 263 257 259 261 256 250 249 252 251 250
234 179 210 190 228 234 303 243 265 283 281 290 299 297 294 288 288 288 295 282 276 271 263 259 261 269 270 257 258 264 263 255 255 260 257 252 254 253 252 246 245 240 238 231
300 90 242 340 332 301 300 277 298 315 302 298 294 293 294 293 284 286 287 279 284 283 266 264 255 255 261 253 252 260 254 252 250 245 234 243 251 246 246 249 242 234 229 219
234 11 245 251 288 311 284 324 314 306 301 302 303 300 294 292 292 289 297 276 285 282 278 269 266 258 257 245 246 257 254 248 249 248 250 254 252 244 246 239 233 231 235 232
171 336 312 284 331 288 299 306 306 305 310 308 302 301 300 303 303 299 297 292 292 277 288 275 267 276 258 240 246 256 241 243 247 244 244 243 236 227 231 234 237 238 239 244